[ hide orbit diagram ]
For accurate long-term ephemerides, please instead use our Horizons system.This orbit viewer was implemented using two-body methods, and hence should not be used for determining accurate long-term trajectories (over several years or decades) or planetary encounter circumstances.
Orbital Elements at Epoch 2459000.5 (2020-May-31.0) TDB
Reference: JPL 16 (heliocentric ecliptic J2000)
Element | Value | Uncertainty (1-sigma) | Units |
e | .06118291792370663 | 7.2493e-08 | |
a | 2.580827186376804 | 3.9093e-08 | au |
q | 2.422924648457441 | 1.9326e-07 | au |
i | 10.65357644342639 | 1.1316e-05 | deg |
node | 21.74901455652664 | 2.3031e-05 | deg |
peri | 135.3592022264136 | 0.00012977 | deg |
M | 49.2861887192296 | 0.00011799 | deg |
tp | 2458793.171240540939 (2019-Nov-05.67124054) | 0.00049964 | TDB |
period | 1514.386795669207 4.15 | 3.4409e-05 9.421e-08 | d yr |
n | .2377199808064334 | 5.4013e-09 | deg/d |
Q | 2.738729724296167 | 4.1485e-08 | au |
|
| | Orbit Determination Parameters
Additional Information
|
[ show covariance matrix ]
Physical Parameter Table
Parameter |
Symbol |
Value |
Units |
Sigma |
Reference |
Notes |
absolute magnitude |
H |
16.9 |
|
n/a |
MPO472539 |
|
|
461725 (2005 TM35) Discovered 2005-Oct-01 by Spacewatch at Kitt Peak |
Reference: | Last Updated: 2016-03-24 |
|
|